Погода в Вильнюсе

Поиск расширенной информации на нашем сайте:

Полезная информация:

Новости сайта



02.01.2020
Опубликован Долгосрочный прогноз погоды по городам России и ближнего зарубежья на январь 2020 года.
Карты: Прогноз на январь и февраль 2020 года, Сравнение прогнозируемой аномалии приземной температуры воздуха на январь 2020 года по разным моделям.




Погода в Вильнюсе - сегодня

Время (UTC), дата Ветер
(°,м/с) 
Видим.   Явления Облачность Т
(°С)
Тd
(°С)
f(%) Тe
(°С)
Pmin
(гПа)
dP
(гПа)
Po
(мм)
O2
(г/м3)
Тmin Tmax R s Состояние
почвы
12 09.08.20 360 (С) 3-6{10}  20000 м    8/5 1500 м средняя 
[Cu med, cong|Ac lent]
+27.2 +14.1 45 +34  1019.1  -1.3  751  272           
15 09.08.20 050 (СВ) 2-4{10}  20000 м  {ливн. осадки}  5/3 1500 м верхняя 
[Cu med, cong|Ci ing]
+25.8 +15.7 54 +36  1018.5  -0.7  750  273           
18 09.08.20 тихо () -2{05}  19000 м  {ливн. осадки}  3/0 верхняя 
[Ci fib]
+23.3 +15.5 62 +33  1018.5  0.1  750  275    +27.6  0.3     
21 09.08.20 тихо () -0{02}  20000 м    ясно 
+18.9 +15.3 80 +28  1019.3  0.5  751  280           
00 10.08.20 тихо () -2{02}  20000 м    ясно 
+16.5 +15 91 +25  1019.5  751  282           
03 10.08.20 тихо () -0{02}  4600 м  дымка  ясно 
+15.6 +14.5 93 +23  1019.6  0.1  751  283           
06 10.08.20 тихо () -0{02}  19000 м    ясно 
+21.9 +17.9 78 +36  1019.2  751  276  +15.6        сухая 
09 10.08.20 340 (С) 2-5{05}  20000 м    5/5 1500 м 
[Cu med, cong]
+26.6 +15.3 50 +36  1018.7  -0.2  751  272           
12 10.08.20 320 (СЗ) 4-8{08}  20000 м    5/5 1500 м 
[Cu med, cong]
+27.4 +15.3 48 +37  1017.8  -0.9  750  271           
15 10.08.20 350 (С) 3-7{08}  20000 м    5/3 1500 м верхняя 
[Cu med, cong|Ci]
+27 +14.4 46 +35  1017.2  -0.6  749  272           
18 10.08.20 350 (С) 1-3{07}  20000 м    4/0 верхняя 
[Ci]
+24 +15.5 59 +34  1017.6  0.2  750  274    +28.5       
21 10.08.20 350 (С) 1-3{06}  20000 м    ясно 
+19.5 +13.4 68 +27  1019.2  1.3  751  280           
00 11.08.20 340 (С) 2-3{04}  20000 м    ясно 
+15.1 +11.4 79 +19  1019.6  0.1  751  284           
03 11.08.20 340 (С) 2-3{04}  20000 м    ясно 
+12.3 +10.8 91 +15  1019.9  0.2  751  287           
06 11.08.20 010 (С) 3-5{05}  20000 м    3/3 1500 м 
[Cu hum]
+16.9 +11.8 72 +21  1020.6  752  283  +12.2        сухая 
09 11.08.20 030 (СВ) 4-9{09}  20000 м    ясно 
+20.2 +8.2 46 +20  1021  0.5  752  281           
12 11.08.20 350 (С) 3-7{10}  20000 м    1/0 верхняя 
[Ci fib]
+21.6 +8.7 44 +22  1020.8  0.1  752  279           
15 11.08.20 020 (С) 4-7{10}  20000 м    ясно 
+21.9 +8.3 42 +22  1020.3  -0.4  752  279           
18 11.08.20 020 (С) 1-3{08}  20000 м    ясно 
+18.9 +9 53 +20  1020.6  0.1  752  282    +22.5       
21 11.08.20 тихо () -2{04}  20000 м    ясно 
+14.9 +8.9 67 +15  1021.5  0.6  752  286           
00 12.08.20 тихо () -2{05}  20000 м    8/8 1500 м 
[Sc]
+13 +8.8 76 +13  1022.5  0.9  753  288           
03 12.08.20 тихо () -2{02}  20000 м    ясно 
+10 +8.7 92 +10  1022.8  753  291           
06 12.08.20 010 (С) 2-4{04}  20000 м    ясно 
+15.1 +10.1 72 +17  1023  0.6  753  286  +9.9        сухая 
09 12.08.20 040 (СВ) 2-5{06}  19000 м    8/6 1500 м верхняя 
[Cu med, cong|Ci fib]
+17.5 +7.8 53 +18  1022.6  -0.2  753  284           
12 12.08.20 010 (С) 2-5{07}  20000 м    9/9 1500 м 
[Cu med, cong]
+19.2 +7.3 46 +20  1022.5  0.1  753  282           
Время (UTC), дата Ветер
(°,м/с) 
Видим.   Явления Облачность Т
(°С)
Тd
(°С)
f(%) Тe
(°С)
Pmin
(гПа)
dP
(гПа)
Po
(мм)
O2
(г/м3)
Тmin Tmax R s Состояние
почвы

Для получения пояснительной информации подведите курсор к названию столбца.

ПОГОДА в Вильнюсе - архив

Всё, что Вы хотите узнать о погоде в Вильнюсе - удобно и подробно!

Выберите нужную дату (начиная с 1 января 2019* года) и нажмите кнопку "Найти".
Будут отображены архивные сводки погоды по пункту Вильнюс, начиная с указанной даты.


Отображать данные в формате CSV (для использования в таблицах Excel)


Внимание! Наш архив погоды предназначен исключительно для личного некоммерческого использования в познавательных целях. Если Вам необходимы официальные справки о состоянии погоды (для производственных, юридических, коммерческих и т.п. целей), обращайтесь в органы Росгидромета.

*Примечание: данная дата относится к архиву по метеостанциям СССР (Россия, СНГ, Балтия).
Архив по метеостанциям Зарубежной Европы и Азии (кроме Китая) хранится 10 дней, по другим регионам земного шара (Китай, Африка, Америка, Австралия, Океания) - 1 день.

Вильнюс - район местоположения метеостанции


Название, широта, долгота, высота метеостанции:
Вильнюс 54.6°ш. 25.1°д. 156 м над ур. моря [Литва]

Дополнительная информация

В oтличие oт бoльшинства пoгoдных сайтoв мы публикуем пoдрoбную метеoинфoрмацию в детальнoм прoфессиoнальнoм фoрмате.

Характеристики температуры и влажнoсти вoздуха измеряются на высoте 2 м в тени вдали oт зданий и деревьев.
Скoрoсть ветра измеряется на высoте 10 м (на урoвне рoста челoвека скoрoсть ветра ниже в 1.5-2 раза). Если метеoстанция нахoдится в гoрoде или в лесу, тo скoрoсть ветра занижена на 2-4 м/с пo сравнению с oткрытым местoм. Скoрoсть ветра над акватoриями крупных рек и oзёр, а также на вершинах хoлмoв на 2-5 м/с выше, чем в oбычных услoвиях.
Атмoсфернoе давление в разных тoчках местнoсти мoжет значительнo oтличаться oт давления на метеoстанции, в зависимoсти oт услoвий рельефа (при пoдъёме на 10 м давление пoнижается примернo на 1 мм рт.ст.).